Location: Charlottesville
(38.0290°N, 78.4770°W)
Time: 09:25:42
(UTC-04:00)

Vanguard 1 Rocket - Visible Passes

Search period start: 22 October 2017 00:00
Search period end: 01 November 2017 00:00
Orbit: 655 x 4222 km, 34.3° (Epoch: 21 October)

Date Brightness Start Highest point End Pass type
(mag) Time Alt. Az. Time Alt. Az. Time Alt. Az.
22 Oct 10.6 04:30:40 10° S 04:38:31 17° SSE 04:44:12 10° ESE visible
22 Oct 9.2 06:55:49 10° SW 07:05:16 38° SSE 07:10:49 10° E visible
23 Oct 11.1 03:22:24 10° SSE 03:26:07 11° SSE 03:29:22 10° SE visible
23 Oct 9.8 05:43:04 10° SSW 05:53:49 31° SSE 06:00:12 10° E visible
24 Oct 10.3 04:32:05 12° SSW 04:41:53 24° SSE 04:49:00 10° ESE visible
24 Oct 8.9 06:58:10 10° SW 07:08:36 47° SSE 07:14:24 10° E visible
25 Oct 10.8 03:25:55 16° SSE 03:29:29 18° SSE 03:36:36 10° ESE visible
25 Oct 9.5 05:44:48 10° SW 05:57:08 39° SSE 06:03:59 10° E visible
26 Oct 11.2 02:19:37 11° SE 02:19:37 11° SE 02:20:34 10° SE visible
26 Oct 10.1 04:36:59 20° SSW 04:45:12 32° SSE 04:53:09 10° E visible
26 Oct 8.7 07:00:44 10° WSW 07:11:54 56° S 07:17:55 10° E visible
27 Oct 10.6 03:30:33 24° SSE 03:32:46 25° SSE 03:41:32 10° ESE visible
27 Oct 9.2 05:47:54 12° SW 06:00:25 48° SSE 06:07:35 10° E visible
28 Oct 11.0 02:24:00 16° SE 02:24:00 16° SE 02:28:21 10° ESE visible
28 Oct 9.8 04:41:21 27° SSW 04:48:27 40° SSE 04:56:57 10° E visible
28 Oct 8.6 07:03:26 10° WSW 07:15:12 64° S 07:21:22 10° E visible
29 Oct 10.3 03:34:42 32° SSE 03:35:58 32° SSE 03:45:45 10° E visible
29 Oct 9.1 05:52:03 16° WSW 06:03:40 57° SSE 06:11:06 10° E visible
30 Oct 10.8 02:27:59 21° SE 02:27:59 21° SE 02:33:32 10° E visible
30 Oct 9.6 04:45:19 34° SSW 04:51:39 49° SSE 05:00:34 10° E visible
30 Oct 8.5 07:06:15 10° WSW 07:18:29 68° S 07:24:48 10° E visible
31 Oct 10.1 03:38:31 40° SSE 03:39:06 40° SSE 03:49:36 10° E visible
31 Oct 9.0 05:55:50 19° WSW 06:06:54 65° S 06:14:34 10° E visible
